INMARSAT 3-F1

导读 | 星芒AI

INMARSAT 3-F1 是国际海事卫星组织(Inmarsat)第三代卫星系统中的一颗通信卫星,于1997年由阿里安航天公司发射。该卫星位于东经64.5度的轨道位置,主要提供移动卫星通信服务,广泛应用于海事、航空和陆地移动领域。INMARSAT 3-F1 支持语音和数据传输,采用L波段和C波段,提升了通信的稳定性和覆盖范围,是Inmarsat全球移动卫星通信网络的重要组成部分。

基本信息
目录编号:
23839
目录名称:
INMARSAT 3-F1
国际标识:
1996-020A
轨道中心:
EARTH
卫星名称:
INMARSAT 3-F1
卫星全名:
--
卫星状态:
在轨 (已飞行10801 天)
发射日期:
1996-04-03 UTC
国别 :
(IM)
星等 :
--
轨道信息
数据来源 国际轨道数据 AOE轨道数据
星历时间 2025-10-27T23:27:23+0800
1天前
查看轨道信息
2025-10-29T00:00:00+0800
14小时前
查看轨道信息
半长轴 42240.871km 42240.871km
偏心率 0.0009136 0.0009251
轨道倾角 10.116° 10.121°
近地点辐角 174.457° 176.138°
升交点赤经 48.720° 48.710°
平近点角 187.192° 193.689°
近地点 35824.144km 35823.658km
远地点 35901.328km 35901.814km
周期 1439.988分钟 1439.988分钟
每日圈数 1.000008 1.000008
详细信息
使用方式:
暂无
2D轨道图
3D轨道图
轨道高度分析图
轨道倾角分析图
轨道综合分析图
查看轨道综合分析图